This is the latest recevied weather packets stored in our database for station/object SA7NOA-14. If no packets are shown the sender has not sent any weather packets the latest 10 day(s).
| Time | Temp. | Humidity | Pressure | Rain* | Wind** | Luminosity | Snow |
|---|---|---|---|---|---|---|---|
| 1788221705 | 14.44° C | 93% | 1007.9 hPa | 0.25 mm | - | - | - |
| 1788216305 | 14.44° C | 96% | 1008.1 hPa | 0.25 mm | - | - | - |
| 1788212701 | 14.44° C | 94% | 1008.1 hPa | 0.25 mm | - | - | - |
| 1788211800 | 14.44° C | 93% | 1008 hPa | 0.25 mm | - | - | - |
| 1788210904 | 14.44° C | 93% | 1008 hPa | 0.25 mm | - | - | - |
| 1788210003 | 14.44° C | 93% | 1008 hPa | 0.25 mm | - | - | - |
| 1788207300 | 14.44° C | 90% | 1007.5 hPa | 0.25 mm | - | - | - |
| 1788205504 | 13.89° C | 90% | 1007.5 hPa | 0.25 mm | - | - | - |
| 1788204603 | 14.44° C | 90% | 1008 hPa | 0.25 mm | - | - | - |
| 1788203701 | 14.44° C | 90% | 1008 hPa | 0.25 mm | - | - | - |
| 1788202800 | 14.44° C | 90% | 1008 hPa | 0.25 mm | - | - | - |
| 1788201003 | 14.44° C | 93% | 1007.4 hPa | 0.51 mm | - | - | - |
| 1788200102 | 15.56° C | 93% | 1007.4 hPa | 0.51 mm | - | - | - |
| 1788199201 | 16.11° C | 93% | 1007.4 hPa | 0.51 mm | - | - | - |
| 1788198305 | 16.11° C | 93% | 1007.4 hPa | 0.51 mm | - | - | - |
| 1788197404 | 16.67° C | 90% | 1007 hPa | 0.51 mm | - | - | - |
| 1788196503 | 16.67° C | 90% | 1007 hPa | 0.51 mm | - | - | - |
| 1788195602 | 16.67° C | 90% | 1007 hPa | 0.51 mm | - | - | - |
| 1788194701 | 16.67° C | 90% | 1007 hPa | 0.51 mm | - | - | - |
| 1788193800 | 17.22° C | 80% | 1007.1 hPa | 0.51 mm | - | - | - |
| 1788192904 | 18.33° C | 80% | 1007.1 hPa | 0.51 mm | - | - | - |
| 1788192003 | 19.44° C | 80% | 1007.1 hPa | 0.51 mm | - | - | - |
| 1788190201 | 21.11° C | 75% | 1007.2 hPa | 0.51 mm | - | - | - |
| 1788188404 | 18.89° C | 75% | 1007.7 hPa | 0.25 mm | - | - | - |
| 1788187503 | 17.78° C | 75% | 1007.7 hPa | 0.25 mm | - | - | - |
* Rain latest 24 hours (hover to see other rain measurements)
** Current wind speed in m/s (hover to see current wind gust speed)